﻿測定場所 (Monitoring sites),日付 (Measurement date),時間 (Measurement time),線量率 最大値 (max) μGy/h,線量率 最小値 (min) μGy/h,線量率 平均値 (average) μGy/h,
大田 (Ota),2012-05-27,23:01～24:00,0.0619,0.0548,0.0579,
大田 (Ota),2012-05-27,22:01～23:00,0.0613,0.0550,0.0581,
大田 (Ota),2012-05-27,21:01～22:00,0.0618,0.0545,0.0577,
大田 (Ota),2012-05-27,20:01～21:00,0.0618,0.0540,0.0580,
大田 (Ota),2012-05-27,19:01～20:00,0.0605,0.0544,0.0579,
大田 (Ota),2012-05-27,18:01～19:00,0.0612,0.0535,0.0576,
大田 (Ota),2012-05-27,17:01～18:00,0.0628,0.0545,0.0582,
大田 (Ota),2012-05-27,16:01～17:00,0.0619,0.0550,0.0581,
大田 (Ota),2012-05-27,15:01～16:00,0.0608,0.0541,0.0584,
大田 (Ota),2012-05-27,14:01～15:00,0.0623,0.0541,0.0582,
大田 (Ota),2012-05-27,13:01～14:00,0.0622,0.0546,0.0581,
大田 (Ota),2012-05-27,12:01～13:00,0.0618,0.0540,0.0578,
大田 (Ota),2012-05-27,11:01～12:00,0.0610,0.0541,0.0577,
大田 (Ota),2012-05-27,10:01～11:00,0.0623,0.0540,0.0580,
大田 (Ota),2012-05-27,09:01～10:00,0.0620,0.0543,0.0582,
大田 (Ota),2012-05-27,08:01～09:00,0.0623,0.0534,0.0580,
大田 (Ota),2012-05-27,07:01～08:00,0.0612,0.0553,0.0584,
大田 (Ota),2012-05-27,06:01～07:00,0.0628,0.0546,0.0579,
大田 (Ota),2012-05-27,05:01～06:00,0.0610,0.0549,0.0580,
大田 (Ota),2012-05-27,04:01～05:00,0.0629,0.0548,0.0583,
大田 (Ota),2012-05-27,03:01～04:00,0.0617,0.0548,0.0579,
大田 (Ota),2012-05-27,02:01～03:00,0.0612,0.0546,0.0579,
大田 (Ota),2012-05-27,01:01～02:00,0.0614,0.0543,0.0580,
大田 (Ota),2012-05-27,00:01～01:00,0.0611,0.0550,0.0577,
大田 (Ota),2012-05-26,23:01～24:00,0.0622,0.0541,0.0576,
大田 (Ota),2012-05-26,22:01～23:00,0.0612,0.0535,0.0577,
大田 (Ota),2012-05-26,21:01～22:00,0.0610,0.0534,0.0577,
大田 (Ota),2012-05-26,20:01～21:00,0.0618,0.0546,0.0578,
大田 (Ota),2012-05-26,19:01～20:00,0.0601,0.0560,0.0576,
大田 (Ota),2012-05-26,18:01～19:00,0.0594,0.0557,0.0578,
大田 (Ota),2012-05-26,17:01～18:00,0.0606,0.0558,0.0581,
大田 (Ota),2012-05-26,16:01～17:00,0.0601,0.0551,0.0579,
大田 (Ota),2012-05-26,15:01～16:00,0.0602,0.0556,0.0580,
大田 (Ota),2012-05-26,14:01～15:00,0.0608,0.0561,0.0582,
大田 (Ota),2012-05-26,13:01～14:00,0.0605,0.0554,0.0579,
大田 (Ota),2012-05-26,12:01～13:00,0.0601,0.0552,0.0577,
大田 (Ota),2012-05-26,11:01～12:00,0.0601,0.0560,0.0582,
大田 (Ota),2012-05-26,10:01～11:00,0.0602,0.0560,0.0578,
大田 (Ota),2012-05-26,09:01～10:00,0.0608,0.0561,0.0583,
大田 (Ota),2012-05-26,08:01～09:00,0.0613,0.0552,0.0585,
大田 (Ota),2012-05-26,07:01～08:00,0.0617,0.0531,0.0580,
大田 (Ota),2012-05-26,06:01～07:00,0.0621,0.0544,0.0581,
大田 (Ota),2012-05-26,05:01～06:00,0.0621,0.0542,0.0580,
大田 (Ota),2012-05-26,04:01～05:00,0.0605,0.0548,0.0576,
大田 (Ota),2012-05-26,03:01～04:00,0.0642,0.0547,0.0579,
大田 (Ota),2012-05-26,02:01～03:00,0.0611,0.0544,0.0575,
大田 (Ota),2012-05-26,01:01～02:00,0.0617,0.0549,0.0580,
大田 (Ota),2012-05-26,00:01～01:00,0.0605,0.0526,0.0574,
大田 (Ota),2012-05-25,23:01～24:00,0.0629,0.0532,0.0576,
大田 (Ota),2012-05-25,22:01～23:00,0.0619,0.0541,0.0571,
大田 (Ota),2012-05-25,21:01～22:00,0.0610,0.0546,0.0575,
大田 (Ota),2012-05-25,20:01～21:00,0.0620,0.0545,0.0578,
大田 (Ota),2012-05-25,19:01～20:00,0.0605,0.0547,0.0578,
大田 (Ota),2012-05-25,18:01～19:00,0.0615,0.0547,0.0576,
大田 (Ota),2012-05-25,17:01～18:00,0.0618,0.0538,0.0576,
大田 (Ota),2012-05-25,16:01～17:00,0.0617,0.0546,0.0583,
大田 (Ota),2012-05-25,15:01～16:00,0.0625,0.0568,0.0597,
大田 (Ota),2012-05-25,14:01～15:00,0.0706,0.0574,0.0635,
大田 (Ota),2012-05-25,13:01～14:00,0.0726,0.0612,0.0666,
大田 (Ota),2012-05-25,12:01～13:00,0.0672,0.0576,0.0612,
大田 (Ota),2012-05-25,11:01～12:00,0.0642,0.0552,0.0601,
大田 (Ota),2012-05-25,10:01～11:00,0.0606,0.0505,0.0540,
大田 (Ota),2012-05-25,09:01～10:00,0.0593,0.0546,0.0570,
大田 (Ota),2012-05-25,08:01～09:00,0.0601,0.0541,0.0568,
大田 (Ota),2012-05-25,07:01～08:00,0.0607,0.0525,0.0573,
大田 (Ota),2012-05-25,06:01～07:00,0.0605,0.0544,0.0577,
大田 (Ota),2012-05-25,05:01～06:00,0.0611,0.0539,0.0571,
大田 (Ota),2012-05-25,04:01～05:00,0.0612,0.0531,0.0573,
大田 (Ota),2012-05-25,03:01～04:00,0.0606,0.0540,0.0575,
大田 (Ota),2012-05-25,02:01～03:00,0.0610,0.0549,0.0574,
大田 (Ota),2012-05-25,01:01～02:00,0.0615,0.0537,0.0573,
大田 (Ota),2012-05-25,00:01～01:00,0.0611,0.0541,0.0569,
大田 (Ota),2012-05-24,23:01～24:00,0.0619,0.0530,0.0570,
大田 (Ota),2012-05-24,22:01～23:00,0.0602,0.0524,0.0569,
大田 (Ota),2012-05-24,21:01～22:00,0.0606,0.0538,0.0571,
大田 (Ota),2012-05-24,20:01～21:00,0.0609,0.0534,0.0574,
大田 (Ota),2012-05-24,19:01～20:00,0.0602,0.0532,0.0567,
大田 (Ota),2012-05-24,18:01～19:00,0.0619,0.0541,0.0571,
大田 (Ota),2012-05-24,17:01～18:00,0.0610,0.0537,0.0571,
大田 (Ota),2012-05-24,16:01～17:00,0.0621,0.0541,0.0574,
大田 (Ota),2012-05-24,15:01～16:00,0.0607,0.0539,0.0573,
大田 (Ota),2012-05-24,14:01～15:00,0.0616,0.0550,0.0576,
大田 (Ota),2012-05-24,13:01～14:00,0.0603,0.0522,0.0571,
大田 (Ota),2012-05-24,12:01～13:00,0.0617,0.0540,0.0573,
大田 (Ota),2012-05-24,11:01～12:00,0.0600,0.0535,0.0570,
大田 (Ota),2012-05-24,10:01～11:00,0.0608,0.0532,0.0575,
大田 (Ota),2012-05-24,09:01～10:00,0.0618,0.0530,0.0574,
大田 (Ota),2012-05-24,08:01～09:00,0.0617,0.0542,0.0575,
大田 (Ota),2012-05-24,07:01～08:00,0.0602,0.0539,0.0575,
大田 (Ota),2012-05-24,06:01～07:00,0.0620,0.0524,0.0573,
大田 (Ota),2012-05-24,05:01～06:00,0.0605,0.0526,0.0569,
大田 (Ota),2012-05-24,04:01～05:00,0.0599,0.0527,0.0569,
大田 (Ota),2012-05-24,03:01～04:00,0.0598,0.0523,0.0562,
大田 (Ota),2012-05-24,02:01～03:00,0.0613,0.0512,0.0565,
大田 (Ota),2012-05-24,01:01～02:00,0.0594,0.0535,0.0565,
大田 (Ota),2012-05-24,00:01～01:00,0.0600,0.0535,0.0564,
大田 (Ota),2012-05-23,23:01～24:00,0.0606,0.0530,0.0564,
大田 (Ota),2012-05-23,22:01～23:00,0.0606,0.0528,0.0563,
大田 (Ota),2012-05-23,21:01～22:00,0.0597,0.0531,0.0564,
大田 (Ota),2012-05-23,20:01～21:00,0.0595,0.0532,0.0563,
大田 (Ota),2012-05-23,19:01～20:00,0.0596,0.0523,0.0563,
大田 (Ota),2012-05-23,18:01～19:00,0.0596,0.0526,0.0562,
大田 (Ota),2012-05-23,17:01～18:00,0.0593,0.0525,0.0559,
大田 (Ota),2012-05-23,16:01～17:00,0.0596,0.0520,0.0566,
大田 (Ota),2012-05-23,15:01～16:00,0.0600,0.0543,0.0569,
大田 (Ota),2012-05-23,14:01～15:00,0.0599,0.0515,0.0564,
大田 (Ota),2012-05-23,13:01～14:00,0.0594,0.0535,0.0561,
大田 (Ota),2012-05-23,12:01～13:00,0.0593,0.0530,0.0566,
大田 (Ota),2012-05-23,11:01～12:00,0.0597,0.0524,0.0558,
大田 (Ota),2012-05-23,10:01～11:00,0.0593,0.0529,0.0562,
大田 (Ota),2012-05-23,09:01～10:00,0.0597,0.0530,0.0565,
大田 (Ota),2012-05-23,08:01～09:00,0.0608,0.0520,0.0566,
大田 (Ota),2012-05-23,07:01～08:00,0.0614,0.0522,0.0568,
大田 (Ota),2012-05-23,06:01～07:00,0.0606,0.0536,0.0570,
大田 (Ota),2012-05-23,05:01～06:00,0.0606,0.0523,0.0563,
大田 (Ota),2012-05-23,04:01～05:00,0.0617,0.0530,0.0561,
大田 (Ota),2012-05-23,03:01～04:00,0.0604,0.0519,0.0563,
大田 (Ota),2012-05-23,02:01～03:00,0.0602,0.0527,0.0568,
大田 (Ota),2012-05-23,01:01～02:00,0.0615,0.0537,0.0570,
大田 (Ota),2012-05-23,00:01～01:00,0.0645,0.0560,0.0592,
大田 (Ota),2012-05-22,23:01～24:00,0.0663,0.0599,0.0623,
大田 (Ota),2012-05-22,22:01～23:00,0.0698,0.0605,0.0648,
大田 (Ota),2012-05-22,21:01～22:00,0.0715,0.0631,0.0672,
大田 (Ota),2012-05-22,20:01～21:00,0.0705,0.0634,0.0671,
大田 (Ota),2012-05-22,19:01～20:00,0.0699,0.0618,0.0658,
大田 (Ota),2012-05-22,18:01～19:00,0.0683,0.0569,0.0626,
大田 (Ota),2012-05-22,17:01～18:00,0.0639,0.0554,0.0594,
大田 (Ota),2012-05-22,16:01～17:00,0.0653,0.0557,0.0600,
大田 (Ota),2012-05-22,15:01～16:00,0.0690,0.0595,0.0646,
大田 (Ota),2012-05-22,14:01～15:00,0.0729,0.0642,0.0691,
大田 (Ota),2012-05-22,13:01～14:00,0.0717,0.0608,0.0669,
大田 (Ota),2012-05-22,12:01～13:00,0.0648,0.0575,0.0612,
大田 (Ota),2012-05-22,11:01～12:00,0.0648,0.0579,0.0611,
大田 (Ota),2012-05-22,10:01～11:00,0.0648,0.0543,0.0601,
大田 (Ota),2012-05-22,09:01～10:00,0.0646,0.0558,0.0605,
大田 (Ota),2012-05-22,08:01～09:00,0.0633,0.0538,0.0595,
大田 (Ota),2012-05-22,07:01～08:00,0.0624,0.0553,0.0582,
大田 (Ota),2012-05-22,06:01～07:00,0.0611,0.0547,0.0578,
大田 (Ota),2012-05-22,05:01～06:00,0.0616,0.0538,0.0579,
大田 (Ota),2012-05-22,04:01～05:00,0.0633,0.0547,0.0586,
大田 (Ota),2012-05-22,03:01～04:00,0.0609,0.0538,0.0576,
大田 (Ota),2012-05-22,02:01～03:00,0.0624,0.0550,0.0581,
大田 (Ota),2012-05-22,01:01～02:00,0.0621,0.0544,0.0575,
大田 (Ota),2012-05-22,00:01～01:00,0.0613,0.0535,0.0573,
大田 (Ota),2012-05-21,23:01～24:00,0.0610,0.0539,0.0576,
大田 (Ota),2012-05-21,22:01～23:00,0.0605,0.0529,0.0575,
大田 (Ota),2012-05-21,21:01～22:00,0.0601,0.0544,0.0575,
大田 (Ota),2012-05-21,20:01～21:00,0.0616,0.0531,0.0575,
大田 (Ota),2012-05-21,19:01～20:00,0.0614,0.0544,0.0575,
大田 (Ota),2012-05-21,18:01～19:00,0.0615,0.0536,0.0577,
大田 (Ota),2012-05-21,17:01～18:00,0.0616,0.0545,0.0584,
大田 (Ota),2012-05-21,16:01～17:00,0.0629,0.0538,0.0579,
大田 (Ota),2012-05-21,15:01～16:00,0.0616,0.0544,0.0578,
大田 (Ota),2012-05-21,14:01～15:00,0.0616,0.0534,0.0576,
大田 (Ota),2012-05-21,13:01～14:00,0.0617,0.0530,0.0575,
大田 (Ota),2012-05-21,12:01～13:00,0.0625,0.0544,0.0579,
大田 (Ota),2012-05-21,11:01～12:00,0.0615,0.0527,0.0571,
大田 (Ota),2012-05-21,10:01～11:00,0.0619,0.0536,0.0576,
大田 (Ota),2012-05-21,09:01～10:00,0.0614,0.0541,0.0578,
大田 (Ota),2012-05-21,08:01～09:00,0.0617,0.0541,0.0579,
大田 (Ota),2012-05-21,07:01～08:00,0.0613,0.0556,0.0586,
大田 (Ota),2012-05-21,06:01～07:00,0.0625,0.0529,0.0585,
大田 (Ota),2012-05-21,05:01～06:00,0.0608,0.0543,0.0575,
大田 (Ota),2012-05-21,04:01～05:00,0.0603,0.0543,0.0575,
大田 (Ota),2012-05-21,03:01～04:00,0.0605,0.0538,0.0578,
大田 (Ota),2012-05-21,02:01～03:00,0.0612,0.0533,0.0570,
大田 (Ota),2012-05-21,01:01～02:00,0.0612,0.0542,0.0572,
大田 (Ota),2012-05-21,00:01～01:00,0.0605,0.0542,0.0573,
